Location: Newark
(27.9881°N, 86.9253°E)
Time: 19:28:24
(UTC+00:00)

N. Korean satellite - Visible Passes

Search period start: 27 September 2020 00:00
Search period end: 07 October 2020 00:00
Orbit: 455 x 503 km, 97.2° (Epoch: 27 September)

Date Brightness Start Highest point End Pass type
(mag) Time Alt. Az. Time Alt. Az. Time Alt. Az.
27 Sep 7.5 23:23:51 10° NNE 23:27:20 51° E 23:30:45 10° S visible
28 Sep 9.4 22:58:32 10° NE 23:01:15 20° E 23:03:55 10° SSE visible
30 Sep 6.5 23:39:00 10° N 23:42:33 88° WNW 23:46:02 10° SSW visible
01 Oct 8.4 23:13:15 10° NNE 23:16:31 34° E 23:19:41 10° SSE visible
02 Oct 9.9 22:48:25 10° ENE 22:50:22 14° E 22:52:19 10° SE visible
04 Oct 7.1 23:28:12 10° NNE 23:31:41 61° E 23:35:06 10° S visible
05 Oct 9.2 23:02:44 10° NE 23:05:35 23° E 23:08:24 10° SSE visible
